Lexington Weather

Lexington, Massachusetts, USA

73°F
9/22/2021 1:40pm 
  • Lexington Conditions: Overcast
  • Temperature: 73.2°F / 22.9°CColder 2.4°F than last hour.
  • Dew Point: 68.2°FDecreased 0.7°Fsince last hour.
  • Relative Humidity: 84%Increased 4.0% since last hour.
  • Wind: Wind from W W 4 mph, 10-min avg: 4 mph, gust: 12 mph
  • Barometer: 30.10 in Steady
  • Visibility: 10 miles
  • Rain Today: 0.00 in
  •   

Regional Weather Roundup
for Boston / Norton, MA

        
000
ASUS41 KBOX 181304
RWRBOX

REGIONAL WEATHER ROUNDUP
NATIONAL WEATHER SERVICE BOSTON/NORTON MA
900 AM EDT SAT SEP 18 2021

NOTE:  "FAIR" INDICATES FEW OR NO CLOUDS BELOW 12,000 FEET WITH NO 
SIGNIFICANT WEATHER AND/OR OBSTRUCTIONS TO VISIBILITY.

MAZALL-181400-
EASTERN MASSACHUSETTS
  
CITY           SKY/WX    TMP DP  RH WIND       PRES   REMARKS
BOSTON         CLOUDY    66  63  90 N8        30.09F FOG              
BEVERLY        CLOUDY    65  65 100 N5        30.08F FOG              
LAWRENCE       CLOUDY    64  64 100 CALM      30.12S                  
BEDFORD        CLOUDY    65  65 100 N3        30.09S FOG              
BLUE HILL      NOT AVBL                                               
NORWOOD        FOG       66  64  93 N6        30.09R VSB 3/4          
MARSHFIELD     FOG       64  64 100 VRB5G12   30.07S VSB 1/4          
PLYMOUTH       FOG       65  65 100 N10       30.07R VSB 1/4          
TAUNTON        CLOUDY    65  64  97 N6        30.06F                  
NEW BEDFORD    CLOUDY    67  66  97 NE8       30.05S FOG              
$$

MAZALL-181400-
CAPE COD AND THE ISLANDS
  
CITY           SKY/WX    TMP DP  RH WIND       PRES   REMARKS
FALMOUTH       FOG       66  66 100 NE13      30.06R VSB 1            
HYANNIS        CLOUDY    68  68 100 N8        30.04S FOG              
CHATHAM        CLOUDY    67  67 100 NE5       30.05F FOG              
PROVINCETOWN   CLOUDY    65  65 100 NE9       30.07F FOG              
NANTUCKET      CLOUDY    71  67  87 N16       30.02S                  
MARTHAS VNYRD  CLOUDY    69  68  96 N14G21    30.04S                  
$$
 
MAZALL-181400-
CENTRAL AND WESTERN MASSACHUSETTS
  
CITY           SKY/WX    TMP DP  RH WIND       PRES   REMARKS
WORCESTER      FOG       63  62  97 NE3       30.11F VSB 1/4          
FITCHBURG      CLOUDY    63  62  97 W3        30.11F                  
ORANGE         CLOUDY    64  62  93 CALM      30.11F                  
SPRINGFIELD    CLOUDY    67  63  89 NE3       30.09S                  
WESTFIELD      CLOUDY    69  66  90 N3        30.10S                  
NORTH ADAMS    CLOUDY    68  64  87 CALM      30.11F                  
PITTSFIELD     CLOUDY    67  64  90 CALM      30.11S                  
$$
 
RIZALL-181400-
RHODE ISLAND
  
CITY           SKY/WX    TMP DP  RH WIND       PRES   REMARKS
PROVIDENCE     CLOUDY    67  65  93 N12       30.08R                  
NEWPORT        CLOUDY    65  65 100 N8        30.05S FOG              
BLOCK ISLAND   CLOUDY    65  64  97 N7        30.06S                  
SMITHFIELD     LGT RAIN  65  65 100 NE9       30.09S VSB 1            
WESTERLY       CLOUDY    65  65 100 N12       30.06S                  
$$
 
CTZALL-181400-
CONNECTICUT
  
CITY           SKY/WX    TMP DP  RH WIND       PRES   REMARKS
BRADLEY INTL   CLOUDY    67  64  90 N6        30.10S                  
HARTFORD       CLOUDY    68  63  84 N7        30.09F                  
BRIDGEPORT     SUNNY     72  65  78 VRB5      30.08S                  
DANBURY        CLOUDY    71  65  81 NE3       30.11S                  
GROTON         CLOUDY    67  64  90 N12       30.05F                  
NEW HAVEN      MOSUNNY   71  66  84 N13       30.08S                  
CHESTER        CLOUDY    66  66 100 N10       30.10R                  
MERIDEN        CLOUDY    68  63  84 N5        30.09S                  
WILLIMANTIC    CLOUDY    65  63  93 N8        30.10S                  
OXFORD         PTSUNNY   66  64  93 N5        30.11F                  
$$

MEZ002-015-021-024-NHZ003-005-008-011-012-014-VTZ005-008-181400-
NORTHERN NEW ENGLAND
  
CITY           SKY/WX    TMP DP  RH WIND       PRES   REMARKS
PORTLAND ME    CLOUDY    64  64 100 CALM      30.10F FOG              
BANGOR ME      FOG       64  64 100 CALM      30.09S VSB 3/4          
CONCORD NH     CLOUDY    65  62  90 CALM      30.09F                  
MANCHESTER NH  FOG       65  62  90 CALM      30.08F VSB 1            
NASHUA NH      CLOUDY    64  64 100 NW3       30.11F FOG              
PORTSMOUTH NH  FOG       64  64 100 CALM      30.10F VSB 3/8          
JAFFREY NH     FOG       63  63 100 CALM      30.11  VSB 3/4          
KEENE NH       CLOUDY    65  63  93 CALM      30.11S                  
BURLINGTON VT  PTSUNNY   71  66  84 SW7       30.07S                  
MT. WASHINGTON PTSUNNY   54  46  76 NW21        N/A                   
$$

NYZ052-076-181400-
EASTERN NEW YORK
  
CITY           SKY/WX    TMP DP  RH WIND       PRES   REMARKS
ALBANY         PTSUNNY   65  65 100 SE5       30.09F                  
NEW YORK CITY  PTSUNNY   74  66  76 VRB3      30.08R                  
$$
 
ANZALL-181400-
MARINE OBSERVATIONS
  
STATION/POSITION TIME  TEMP    WIND        PRES    VSBY  WAVE
                       AIR SEA DIR/SP/G                  HT/PER
                 (UTC) (F)     (DEG/KT/KT) (MB)    (MI)  (FT/S)
BOSTON BUOY      1240      67   10/ 12/ 14 1018.9F
BUZZARDS BAY     1200           10/ 14/ 16 1018.1F
NANTUCKET SOUND  1240   70 72   40/ 14/ 17 1017.0S
MASS BAY-STELLWA 1204   64      20/ 12/ 16 1018.1R  1 7/8  2/ 3
ISLE OF SHOALS   1200   63      20/ 11/ 12 1018.9R
S OF BLOCK IS    1226      70                N/A           7/ 9
$$

......................KEY.........................
  SKY/WX - SKY CONDITION/PRESENT WEATHER
  TMP    - TEMPERATURE IN FAHRENHEIT
  DWPT   - DEWPOINT IN FAHRENHEIT
  RH     - RELATIVE HUMIDITY IN PERCENT
  WIND   - DIRECTION AND SPEED IN MPH
  PRES   - MEAN SEA LEVEL PRESSURE IN INCHES OF HG
  WCI    - WIND CHILL INDEX
  VSB    - VISIBILITY IN MILES
  HX     - HEAT INDEX
  TC     - TEMPERATURE IN CELSIUS
  VRB    - VARIABLE WIND DIRECTION
  N/A    - NOT AVAILABLE
  
      

Other recent Regional Weather Roundups

Wed Sep 22, 1:04pm

Wed Sep 22, 12:05pm

Wed Sep 22, 11:04am

Wed Sep 22, 10:04am

Wed Sep 22, 9:04am

Wed Sep 22, 8:04am

Wed Sep 22, 7:04am

Wed Sep 22, 6:04am

Wed Sep 22, 5:04am

Wed Sep 22, 4:04am

Wed Sep 22, 3:04am

Wed Sep 22, 2:04am

Wed Sep 22, 1:04am

Wed Sep 22, 12:04am

Tue Sep 21, 11:04pm

Tue Sep 21, 10:04pm

Tue Sep 21, 9:04pm

Tue Sep 21, 8:04pm

Tue Sep 21, 7:04pm

Tue Sep 21, 6:04pm

Tue Sep 21, 5:04pm

Tue Sep 21, 4:04pm

Tue Sep 21, 3:04pm

Tue Sep 21, 2:04pm

Tue Sep 21, 1:04pm

Tue Sep 21, 12:04pm

Tue Sep 21, 11:04am

Tue Sep 21, 10:04am

Tue Sep 21, 9:04am

Tue Sep 21, 8:04am

Tue Sep 21, 7:04am

Tue Sep 21, 6:04am

Tue Sep 21, 5:04am

Tue Sep 21, 4:04am

Tue Sep 21, 3:04am

Tue Sep 21, 2:04am

Tue Sep 21, 1:04am

Tue Sep 21, 12:04am

Mon Sep 20, 11:04pm

Mon Sep 20, 10:04pm

Mon Sep 20, 9:04pm

Mon Sep 20, 8:04pm

Mon Sep 20, 7:04pm

Mon Sep 20, 6:04pm

Mon Sep 20, 5:04pm

Mon Sep 20, 4:04pm

Mon Sep 20, 3:04pm

Mon Sep 20, 2:04pm

Mon Sep 20, 1:04pm

Mon Sep 20, 12:04pm

Mon Sep 20, 11:04am

Mon Sep 20, 10:04am

Mon Sep 20, 9:04am

Mon Sep 20, 7:04am

Mon Sep 20, 6:04am

Mon Sep 20, 5:04am

Mon Sep 20, 4:04am

Mon Sep 20, 3:04am

Mon Sep 20, 2:04am

Mon Sep 20, 1:04am

Mon Sep 20, 12:04am

Sun Sep 19, 11:04pm

Sun Sep 19, 10:04pm

Sun Sep 19, 9:04pm

Sun Sep 19, 8:04pm

Sun Sep 19, 7:04pm

Sun Sep 19, 6:04pm

Sun Sep 19, 5:04pm

Sun Sep 19, 4:04pm

Sun Sep 19, 3:04pm

Sun Sep 19, 2:05pm

Sun Sep 19, 1:04pm

Sun Sep 19, 12:04pm

Sun Sep 19, 11:04am

Sun Sep 19, 10:05am

Sun Sep 19, 9:04am

Sun Sep 19, 8:04am

Sun Sep 19, 7:04am

Sun Sep 19, 6:04am

Sun Sep 19, 5:04am

Sun Sep 19, 4:04am

Sun Sep 19, 3:04am

Sun Sep 19, 2:04am

Sun Sep 19, 1:04am

Sun Sep 19, 12:04am

Sat Sep 18, 11:05pm

Sat Sep 18, 10:04pm

Sat Sep 18, 9:04pm

Sat Sep 18, 8:04pm

Sat Sep 18, 7:04pm

Sat Sep 18, 6:04pm

Sat Sep 18, 5:04pm

Sat Sep 18, 4:04pm

Sat Sep 18, 3:04pm

Sat Sep 18, 2:04pm

Sat Sep 18, 1:04pm

Sat Sep 18, 12:04pm

Sat Sep 18, 11:04am

Sat Sep 18, 10:04am

Sat Sep 18, 8:04am

Sat Sep 18, 7:04am

Sat Sep 18, 6:04am

Sat Sep 18, 5:04am

Sat Sep 18, 4:04am

Sat Sep 18, 3:04am

Sat Sep 18, 2:04am

Sat Sep 18, 1:04am

Sat Sep 18, 12:04am

Fri Sep 17, 11:04pm

Fri Sep 17, 10:04pm

Fri Sep 17, 9:04pm

Fri Sep 17, 8:04pm

Fri Sep 17, 7:04pm

Fri Sep 17, 6:04pm

Fri Sep 17, 5:04pm

Fri Sep 17, 4:04pm

Fri Sep 17, 3:04pm

Fri Sep 17, 2:04pm

Fri Sep 17, 1:04pm

Fri Sep 17, 12:05pm

Fri Sep 17, 11:04am

Fri Sep 17, 10:04am

Fri Sep 17, 9:04am

Fri Sep 17, 8:04am

Fri Sep 17, 7:04am

Fri Sep 17, 6:04am

Fri Sep 17, 5:04am

Fri Sep 17, 4:04am

Fri Sep 17, 3:04am

Fri Sep 17, 2:04am

Fri Sep 17, 1:04am

Fri Sep 17, 12:04am

Thu Sep 16, 11:04pm

Thu Sep 16, 10:04pm

Thu Sep 16, 9:04pm

Thu Sep 16, 8:04pm

Thu Sep 16, 7:04pm

Thu Sep 16, 6:04pm

Thu Sep 16, 5:04pm

Thu Sep 16, 4:04pm

Thu Sep 16, 3:04pm

Thu Sep 16, 2:04pm

Thu Sep 16, 1:05pm

Thu Sep 16, 12:04pm

Thu Sep 16, 11:05am

Thu Sep 16, 10:05am

Thu Sep 16, 9:04am

Thu Sep 16, 8:04am

Thu Sep 16, 7:04am

Thu Sep 16, 6:04am

Thu Sep 16, 5:04am

Thu Sep 16, 4:04am

Thu Sep 16, 3:04am

Thu Sep 16, 2:04am

Thu Sep 16, 1:04am

Thu Sep 16, 12:04am

Wed Sep 15, 11:04pm

Wed Sep 15, 10:04pm

Wed Sep 15, 9:04pm

Wed Sep 15, 8:04pm

Wed Sep 15, 7:04pm

Wed Sep 15, 6:04pm

Wed Sep 15, 5:05pm

Wed Sep 15, 4:04pm

Wed Sep 15, 3:04pm

Wed Sep 15, 2:04pm

Meta data:

ID: 52231e3f-4c79-4af9-9ad2-7f077ab1b502
Link: https://api.weather.gov/products/52231e3f-4c79-4af9-9ad2-7f077ab1b502